Weather History for KNCA - March, 2013

Change the Weather History Date:

Friday, March 29, 2013

  Actual Average Record
Temperature  
Mean Temperature 45 °F -  
Max Temperature 61 °F 67 °F 86 °F (1997)
Min Temperature 30 °F 45 °F 28 °F (2015)
Degree Days  
Heating Degree Days 20    
Moisture  
Dew Point 27 °F    
Average Humidity 49    
Maximum Humidity 85    
Minimum Humidity 23    
Precipitation  
Precipitation 0.00 in - - ()
Sea Level Pressure  
Sea Level Pressure 30.29 in    
Wind  
Wind Speed 7 mph (WNW)    
Max Wind Speed 13 mph    
Max Gust Speed 21 mph    
Visibility 10 miles    
Events      
Averages and records for this station are not official NWS values.
T = Trace of Precipitation, MM = Missing Value Source: NWS Daily Summary

Daily Weather History Graph

Daily Weather History Graph

Search for Another Location

Airport or City:

Trip Planner

Search our weather history database for the weather conditions in past years. The results will help you decide how hot, cold, wet, or windy it might be!

Date:

Astronomy

Mar. 29, 2013 Rise Set
Actual Time 7:00 AM EDT 7:28 PM EDT
Civil Twilight 6:35 AM EDT 7:54 PM EDT
Nautical Twilight 6:05 AM EDT 8:23 PM EDT
Astronomical Twilight 5:35 AM EDT 8:54 PM EDT
Moon 10:18 PM EDT (3/29) 8:15 AM EDT (3/29)
Length of Visible Light 13h 18m
Length of Day
12h 28m
Waning Gibbous, 93% of the Moon is Illuminated
Mar 29
Waning Gibbous
Apr 3
Last Quarter
Apr 10
New
Apr 18
First Quarter
Apr 25
Full

Hourly Weather History & Observations

Time (EDT) Temp. Windchill Dew Point Humidity Pressure Visibility Wind Dir Wind Speed Gust Speed Precip Events Conditions
12:56 AM 43.0 °F 37.2 °F 26.1 °F 51% 30.30 in 10.0 mi NNW 10.4 mph - N/A   Clear
1:56 AM 43.0 °F 39.5 °F 24.1 °F 47% 30.31 in 10.0 mi North 5.8 mph - N/A   Clear
2:56 AM 39.0 °F 35.7 °F 24.1 °F 55% 30.30 in 10.0 mi NW 4.6 mph - N/A   Clear
3:56 AM 36.0 °F 31.1 °F 25.0 °F 64% 30.30 in 10.0 mi NNW 5.8 mph - N/A   Clear
4:56 AM 36.0 °F 32.1 °F 25.0 °F 64% 30.29 in 10.0 mi NNW 4.6 mph - N/A   Clear
5:56 AM 33.1 °F 30.0 °F 26.1 °F 75% 30.31 in 10.0 mi West 3.5 mph - N/A   Clear
6:56 AM 30.0 °F - 26.1 °F 85% 30.32 in 10.0 mi Calm Calm - N/A   Clear
7:56 AM 34.0 °F - 28.0 °F 79% 30.34 in 10.0 mi Calm Calm - N/A   Clear
8:56 AM 44.1 °F 41.5 °F 26.1 °F 49% 30.35 in 10.0 mi NNW 4.6 mph - N/A   Clear
9:56 AM 50.0 °F - 24.1 °F 36% 30.35 in 10.0 mi North 5.8 mph - N/A   Clear
10:56 AM 52.0 °F - 21.9 °F 31% 30.34 in 10.0 mi North 10.4 mph - N/A   Clear
11:56 AM 54.0 °F - 21.9 °F 29% 30.32 in 10.0 mi NNW 10.4 mph - N/A   Clear
12:56 PM 55.9 °F - 23.0 °F 28% 30.30 in 9.0 mi North 6.9 mph 17.3 mph N/A   Clear
1:56 PM 57.9 °F - 23.0 °F 26% 30.27 in 10.0 mi WNW 11.5 mph 20.7 mph N/A   Clear
2:56 PM 59.0 °F - 21.9 °F 24% 30.25 in 10.0 mi NNW 11.5 mph - N/A   Clear
3:56 PM 60.1 °F - 21.9 °F 23% 30.23 in 10.0 mi SW 12.7 mph 20.7 mph N/A   Clear
4:56 PM 59.0 °F - 21.9 °F 24% 30.22 in 10.0 mi West 5.8 mph - N/A   Partly Cloudy
5:56 PM 55.0 °F - 30.0 °F 38% 30.22 in 10.0 mi SSE 12.7 mph 18.4 mph N/A   Clear
6:56 PM 52.0 °F - 30.9 °F 45% 30.23 in 10.0 mi South 8.1 mph - N/A   Clear
7:56 PM 48.9 °F - 33.1 °F 54% 30.25 in 10.0 mi South 4.6 mph - N/A   Clear
8:56 PM 46.9 °F - 35.1 °F 63% 30.25 in 10.0 mi South 3.5 mph - N/A   Clear
9:56 PM 46.9 °F - 35.1 °F 63% 30.27 in 10.0 mi SSW 4.6 mph - N/A   Clear
10:56 PM 46.9 °F - 33.1 °F 59% 30.27 in 10.0 mi SW 4.6 mph - N/A   Clear
11:56 PM 46.0 °F 44.8 °F 33.1 °F 61% 30.26 in 10.0 mi South 3.5 mph - N/A   Clear